Time,TemperatureF,DewpointF,PressureIn,WindDirection,WindDirectionDegrees,WindSpeedMPH,WindSpeedGustMPH,Humidity,HourlyPrecipIn,Conditions,Clouds,dailyrainin,SoftwareType,DateUTC
2013-05-11 00:12:00,77.0,71.0,30.02,SW,231,0.0,-999.0,82,-99.99,,,0.00,weatherlink.com 1.10,2013-05-11 04:12:00,
2013-05-11 00:27:00,76.6,71.0,30.02,SW,231,0.0,-999.0,82,-99.99,,,0.00,weatherlink.com 1.10,2013-05-11 04:27:00,
2013-05-11 00:42:00,76.3,70.0,30.01,SW,231,0.0,-999.0,82,-99.99,,,0.00,weatherlink.com 1.10,2013-05-11 04:42:00,
2013-05-11 00:57:00,76.1,70.0,30.02,SW,231,0.0,-999.0,82,-99.99,,,0.00,weatherlink.com 1.10,2013-05-11 04:57:00,
2013-05-11 01:12:00,76.4,71.0,30.01,SW,231,0.0,-999.0,83,-99.99,,,0.00,weatherlink.com 1.10,2013-05-11 05:12:00,
2013-05-11 01:27:00,75.3,70.0,30.00,SW,231,0.0,-999.0,83,-99.99,,,0.00,weatherlink.com 1.10,2013-05-11 05:27:00,
2013-05-11 01:42:00,75.2,70.0,30.00,SW,231,0.0,-999.0,83,-99.99,,,0.00,weatherlink.com 1.10,2013-05-11 05:42:00,
2013-05-11 01:57:00,74.8,70.0,30.00,SW,231,1.0,-999.0,84,-99.99,,,0.00,weatherlink.com 1.10,2013-05-11 05:57:00,
2013-05-11 02:12:00,74.6,69.0,29.99,SW,231,0.0,-999.0,83,-99.99,,,0.00,weatherlink.com 1.10,2013-05-11 06:12:00,
2013-05-11 02:27:00,74.3,69.0,29.99,SW,231,0.0,-999.0,84,-99.99,,,0.00,weatherlink.com 1.10,2013-05-11 06:27:00,
2013-05-11 02:42:00,74.1,69.0,30.00,SW,231,0.0,-999.0,84,-99.99,,,0.00,weatherlink.com 1.10,2013-05-11 06:42:00,
2013-05-11 02:57:00,73.9,69.0,29.99,SW,231,0.0,-999.0,84,-99.99,,,0.00,weatherlink.com 1.10,2013-05-11 06:57:00,
2013-05-11 03:12:00,73.9,69.0,29.99,SW,231,0.0,-999.0,84,-99.99,,,0.00,weatherlink.com 1.10,2013-05-11 07:12:00,
2013-05-11 03:27:00,73.7,69.0,29.98,SW,231,0.0,-999.0,84,-99.99,,,0.00,weatherlink.com 1.10,2013-05-11 07:27:00,
2013-05-11 03:42:00,73.5,68.0,29.97,SW,231,0.0,-999.0,84,-99.99,,,0.00,weatherlink.com 1.10,2013-05-11 07:42:00,
2013-05-11 03:57:00,73.4,69.0,29.96,SW,231,0.0,-999.0,85,-99.99,,,0.00,weatherlink.com 1.10,2013-05-11 07:57:00,
2013-05-11 04:12:00,73.3,69.0,29.96,SW,231,1.0,-999.0,85,-99.99,,,0.00,weatherlink.com 1.10,2013-05-11 08:12:00,
2013-05-11 04:27:00,73.2,69.0,29.95,SW,231,0.0,-999.0,85,-99.99,,,0.00,weatherlink.com 1.10,2013-05-11 08:27:00,
2013-05-11 04:42:00,73.2,69.0,29.95,SW,231,0.0,-999.0,85,-99.99,,,0.00,weatherlink.com 1.10,2013-05-11 08:42:00,
2013-05-11 04:57:00,73.0,68.0,29.96,ESE,120,0.0,-999.0,85,-99.99,,,0.00,weatherlink.com 1.10,2013-05-11 08:57:00,
2013-05-11 05:12:00,73.0,68.0,29.96,SE,125,0.0,-999.0,85,-99.99,,,0.00,weatherlink.com 1.10,2013-05-11 09:12:00,
2013-05-11 05:27:00,72.8,68.0,29.96,SE,125,0.0,-999.0,85,-99.99,,,0.00,weatherlink.com 1.10,2013-05-11 09:27:00,
2013-05-11 05:42:00,73.0,68.0,29.97,SE,125,0.0,-999.0,85,-99.99,,,0.00,weatherlink.com 1.10,2013-05-11 09:42:00,
2013-05-11 05:57:00,72.8,68.0,29.97,SE,128,0.0,-999.0,85,-99.99,,,0.00,weatherlink.com 1.10,2013-05-11 09:57:00,
2013-05-11 06:12:00,72.7,68.0,29.98,ESE,113,1.0,-999.0,85,-99.99,,,0.00,weatherlink.com 1.10,2013-05-11 10:12:00,
2013-05-11 06:27:00,72.5,68.0,29.98,SE,126,4.0,-999.0,86,-99.99,,,0.00,weatherlink.com 1.10,2013-05-11 10:27:00,
2013-05-11 06:42:00,72.5,68.0,29.98,East,96,1.0,-999.0,86,-99.99,,,0.00,weatherlink.com 1.10,2013-05-11 10:42:00,
2013-05-11 06:57:00,72.6,68.0,29.98,East,96,0.0,-999.0,86,-99.99,,,0.00,weatherlink.com 1.10,2013-05-11 10:57:00,
2013-05-11 07:12:00,72.4,68.0,29.99,East,96,1.0,-999.0,86,-99.99,,,0.00,weatherlink.com 1.10,2013-05-11 11:12:00,
2013-05-11 07:27:00,72.5,68.0,29.99,East,96,1.0,-999.0,86,-99.99,,,0.00,weatherlink.com 1.10,2013-05-11 11:27:00,
2013-05-11 07:42:00,72.7,68.0,29.99,East,96,1.0,-999.0,86,-99.99,,,0.00,weatherlink.com 1.10,2013-05-11 11:42:00,
2013-05-11 07:57:00,72.8,68.0,29.99,East,96,0.0,-999.0,86,-99.99,,,0.00,weatherlink.com 1.10,2013-05-11 11:57:00,
2013-05-11 08:12:00,73.4,69.0,30.00,East,96,2.0,-999.0,86,-99.99,,,0.00,weatherlink.com 1.10,2013-05-11 12:12:00,
2013-05-11 08:27:00,74.0,70.0,29.99,SE,146,0.0,-999.0,86,-99.99,,,0.00,weatherlink.com 1.10,2013-05-11 12:27:00,
2013-05-11 08:43:00,74.7,70.0,29.99,ESE,121,1.0,-999.0,86,-99.99,,,0.00,weatherlink.com 1.10,2013-05-11 12:43:00,
2013-05-11 08:58:00,75.1,71.0,29.99,South,190,4.0,-999.0,86,-99.99,,,0.00,weatherlink.com 1.10,2013-05-11 12:58:00,
2013-05-11 09:13:00,76.5,72.0,30.00,South,188,2.0,-999.0,86,-99.99,,,0.00,weatherlink.com 1.10,2013-05-11 13:13:00,
2013-05-11 09:28:00,77.5,72.0,30.00,SW,225,7.0,-999.0,84,-99.99,,,0.00,weatherlink.com 1.10,2013-05-11 13:28:00,
2013-05-11 09:43:00,78.7,73.0,30.01,SSW,213,5.0,-999.0,83,-99.99,,,0.00,weatherlink.com 1.10,2013-05-11 13:43:00,
2013-05-11 09:58:00,79.4,73.0,30.01,SW,226,9.0,-999.0,81,-99.99,,,0.00,weatherlink.com 1.10,2013-05-11 13:58:00,
2013-05-11 10:13:00,79.7,73.0,30.01,SW,221,7.0,-999.0,80,-99.99,,,0.00,weatherlink.com 1.10,2013-05-11 14:13:00,
2013-05-11 10:28:00,80.3,73.0,30.01,SW,221,13.0,-999.0,79,-99.99,,,0.00,weatherlink.com 1.10,2013-05-11 14:28:00,
2013-05-11 10:43:00,80.2,73.0,30.01,SW,225,10.0,-999.0,79,-99.99,,,0.00,weatherlink.com 1.10,2013-05-11 14:43:00,
2013-05-11 10:58:00,80.1,73.0,30.01,SSW,213,12.0,-999.0,79,-99.99,,,0.00,weatherlink.com 1.10,2013-05-11 14:58:00,
2013-05-11 11:13:00,80.2,74.0,30.00,SSW,209,10.0,-999.0,80,-99.99,,,0.00,weatherlink.com 1.10,2013-05-11 15:13:00,
2013-05-11 11:28:00,80.2,74.0,30.00,SW,221,11.0,-999.0,80,-99.99,,,0.00,weatherlink.com 1.10,2013-05-11 15:28:00,
2013-05-11 11:43:00,80.4,74.0,30.00,South,186,6.0,-999.0,80,-99.99,,,0.00,weatherlink.com 1.10,2013-05-11 15:43:00,
2013-05-11 11:58:00,80.6,74.0,30.00,SSW,196,8.0,-999.0,79,-99.99,,,0.00,weatherlink.com 1.10,2013-05-11 15:58:00,
2013-05-11 12:13:00,80.6,74.0,30.00,SW,219,12.0,-999.0,79,-99.99,,,0.00,weatherlink.com 1.10,2013-05-11 16:13:00,
2013-05-11 12:28:00,80.4,73.0,30.00,SW,236,8.0,-999.0,79,-99.99,,,0.00,weatherlink.com 1.10,2013-05-11 16:28:00,
2013-05-11 12:43:00,80.5,73.0,30.00,SW,227,10.0,-999.0,79,-99.99,,,0.00,weatherlink.com 1.10,2013-05-11 16:43:00,
2013-05-11 12:58:00,80.3,73.0,30.00,SW,231,11.0,-999.0,79,-99.99,,,0.00,weatherlink.com 1.10,2013-05-11 16:58:00,
2013-05-11 13:13:00,80.6,74.0,29.99,SSW,209,11.0,-999.0,79,-99.99,,,0.00,weatherlink.com 1.10,2013-05-11 17:13:00,
2013-05-11 13:28:00,80.7,74.0,29.99,SW,223,11.0,-999.0,79,-99.99,,,0.00,weatherlink.com 1.10,2013-05-11 17:28:00,
2013-05-11 13:43:00,80.3,74.0,29.99,SW,225,10.0,-999.0,80,-99.99,,,0.00,weatherlink.com 1.10,2013-05-11 17:43:00,
2013-05-11 13:58:00,80.4,73.0,29.99,SW,215,17.0,-999.0,79,-99.99,,,0.00,weatherlink.com 1.10,2013-05-11 17:58:00,
2013-05-11 14:13:00,80.2,74.0,29.99,SW,227,15.0,-999.0,80,-99.99,,,0.00,weatherlink.com 1.10,2013-05-11 18:13:00,
2013-05-11 14:28:00,80.4,74.0,29.98,SW,234,15.0,-999.0,80,-99.99,,,0.00,weatherlink.com 1.10,2013-05-11 18:28:00,
2013-05-11 14:43:00,80.2,74.0,29.98,SW,225,10.0,-999.0,80,-99.99,,,0.00,weatherlink.com 1.10,2013-05-11 18:43:00,
2013-05-11 14:58:00,80.1,74.0,29.98,SW,230,12.0,-999.0,81,-99.99,,,0.00,weatherlink.com 1.10,2013-05-11 18:58:00,
2013-05-11 15:13:00,80.2,74.0,29.98,SW,223,12.0,-999.0,81,-99.99,,,0.00,weatherlink.com 1.10,2013-05-11 19:13:00,
2013-05-11 15:28:00,80.2,74.0,29.97,SW,232,13.0,-999.0,81,-99.99,,,0.00,weatherlink.com 1.10,2013-05-11 19:28:00,
2013-05-11 15:43:00,80.1,74.0,29.97,SW,226,13.0,-999.0,81,-99.99,,,0.00,weatherlink.com 1.10,2013-05-11 19:43:00,
2013-05-11 15:58:00,80.1,74.0,29.97,SW,230,15.0,-999.0,81,-99.99,,,0.00,weatherlink.com 1.10,2013-05-11 19:58:00,
2013-05-11 16:13:00,80.1,74.0,29.97,SW,226,13.0,-999.0,81,-99.99,,,0.00,weatherlink.com 1.10,2013-05-11 20:13:00,
2013-05-11 16:28:00,80.2,74.0,29.97,SW,223,14.0,-999.0,81,-99.99,,,0.00,weatherlink.com 1.10,2013-05-11 20:28:00,
2013-05-11 16:43:00,80.0,74.0,29.97,SW,226,15.0,-999.0,81,-99.99,,,0.00,weatherlink.com 1.10,2013-05-11 20:43:00,
2013-05-11 16:58:00,79.8,74.0,29.97,WSW,238,12.0,-999.0,81,-99.99,,,0.00,weatherlink.com 1.10,2013-05-11 20:58:00,
2013-05-11 17:13:00,79.6,74.0,29.97,SW,236,14.0,-999.0,82,-99.99,,,0.00,weatherlink.com 1.10,2013-05-11 21:13:00,
2013-05-11 17:28:00,79.4,74.0,29.97,WSW,237,13.0,-999.0,82,-99.99,,,0.00,weatherlink.com 1.10,2013-05-11 21:28:00,
2013-05-11 17:43:00,79.4,74.0,29.97,WSW,240,10.0,-999.0,82,-99.99,,,0.00,weatherlink.com 1.10,2013-05-11 21:43:00,
2013-05-11 17:58:00,79.1,73.0,29.96,WSW,244,13.0,-999.0,82,-99.99,,,0.00,weatherlink.com 1.10,2013-05-11 21:58:00,
2013-05-11 18:13:00,79.1,73.0,29.96,WSW,238,10.0,-999.0,82,-99.99,,,0.00,weatherlink.com 1.10,2013-05-11 22:13:00,
2013-05-11 18:28:00,78.8,73.0,29.95,WSW,245,10.0,-999.0,82,-99.99,,,0.00,weatherlink.com 1.10,2013-05-11 22:28:00,
2013-05-11 18:43:00,78.9,73.0,29.95,WSW,251,6.0,-999.0,83,-99.99,,,0.00,weatherlink.com 1.10,2013-05-11 22:43:00,
2013-05-11 18:58:00,78.7,73.0,29.95,SW,236,9.0,-999.0,83,-99.99,,,0.00,weatherlink.com 1.10,2013-05-11 22:58:00,
2013-05-11 19:13:00,78.5,73.0,29.95,WSW,249,5.0,-999.0,83,-99.99,,,0.00,weatherlink.com 1.10,2013-05-11 23:13:00,
2013-05-11 19:28:00,78.5,73.0,29.95,WSW,257,7.0,-999.0,83,-99.99,,,0.00,weatherlink.com 1.10,2013-05-11 23:28:00,
2013-05-11 19:43:00,78.1,73.0,29.96,West,278,6.0,-999.0,83,-99.99,,,0.00,weatherlink.com 1.10,2013-05-11 23:43:00,
2013-05-11 19:58:00,78.1,72.0,29.96,West,276,3.0,-999.0,82,-99.99,,,0.00,weatherlink.com 1.10,2013-05-11 23:58:00,
2013-05-11 20:13:00,78.1,73.0,29.97,West,265,4.0,-999.0,83,-99.99,,,0.00,weatherlink.com 1.10,2013-05-12 00:13:00,
2013-05-11 20:28:00,78.0,73.0,29.98,West,277,6.0,-999.0,83,-99.99,,,0.00,weatherlink.com 1.10,2013-05-12 00:28:00,
2013-05-11 20:43:00,78.1,73.0,29.98,WNW,296,4.0,-999.0,83,-99.99,,,0.00,weatherlink.com 1.10,2013-05-12 00:43:00,
2013-05-11 20:58:00,78.0,73.0,29.98,WNW,291,1.0,-999.0,83,-99.99,,,0.00,weatherlink.com 1.10,2013-05-12 00:58:00,
2013-05-11 21:13:00,78.0,73.0,29.98,WNW,291,2.0,-999.0,83,-99.99,,,0.00,weatherlink.com 1.10,2013-05-12 01:13:00,
2013-05-11 21:28:00,78.0,73.0,29.98,West,279,2.0,-999.0,83,-99.99,,,0.00,weatherlink.com 1.10,2013-05-12 01:28:00,
2013-05-11 21:44:00,77.9,72.0,29.98,West,277,3.0,-999.0,83,-99.99,,,0.00,weatherlink.com 1.10,2013-05-12 01:44:00,
2013-05-11 21:58:00,77.9,72.0,29.98,West,266,3.0,-999.0,83,-99.99,,,0.00,weatherlink.com 1.10,2013-05-12 01:58:00,
2013-05-11 22:13:00,77.6,72.0,29.98,West,267,2.0,-999.0,83,-99.99,,,0.00,weatherlink.com 1.10,2013-05-12 02:13:00,
2013-05-11 22:28:00,77.7,72.0,29.99,West,267,2.0,-999.0,83,-99.99,,,0.00,weatherlink.com 1.10,2013-05-12 02:28:00,
2013-05-11 22:43:00,77.6,72.0,29.99,West,267,3.0,-999.0,83,-99.99,,,0.00,weatherlink.com 1.10,2013-05-12 02:43:00,
2013-05-11 22:58:00,77.6,72.0,29.99,West,266,3.0,-999.0,83,-99.99,,,0.00,weatherlink.com 1.10,2013-05-12 02:58:00,
2013-05-11 23:13:00,77.5,72.0,29.99,SW,223,3.0,-999.0,83,-99.99,,,0.00,weatherlink.com 1.10,2013-05-12 03:13:00,
2013-05-11 23:28:00,77.8,72.0,29.98,SW,218,1.0,-999.0,83,-99.99,,,0.00,weatherlink.com 1.10,2013-05-12 03:28:00,
2013-05-11 23:43:00,77.5,72.0,29.99,SW,225,5.0,-999.0,83,-99.99,,,0.00,weatherlink.com 1.10,2013-05-12 03:43:00,
2013-05-11 23:58:00,77.4,72.0,29.99,SW,230,4.0,-999.0,83,-99.99,,,0.00,weatherlink.com 1.10,2013-05-12 03:58:00,